Theta_e
322 321 320 319 318 317 318 316 315 314 315 314 314 314 313 312 311 310 309 309 309 309 309 309 309 309 307 306 305 304 307 307 305 307 307 310 309 311 314 316 328 327 328
322 322 321 319 318 317 316 316 315 315 315 315 315 314 314 313 311 309 309 310 309 308 309 309 309 312 307 306 305 305 308 309 307 304 308 306 306 309 310 314 324 328 327
321 321 319 318 318 317 317 316 316 315 315 315 314 313 313 312 311 309 309 309 308 308 308 307 308 307 306 305 305 307 307 310 309 307 306 307 305 307 309 314 323 324 324
322 320 319 319 319 318 317 316 316 316 315 313 313 313 313 311 310 310 309 308 307 307 307 307 307 307 307 307 307 307 309 308 308 308 306 307 304 305 307 311 312 319 318
321 319 319 320 319 318 317 316 316 314 314 314 313 311 309 309 309 307 307 305 303 303 303 305 306 308 311 310 309 308 310 309 308 307 306 306 306 304 302 307 311 315 313
320 321 320 319 318 317 315 314 314 313 312 310 309 308 306 307 306 306 307 303 302 301 302 303 304 308 308 309 310 309 308 306 306 306 306 306 307 308 309 305 311 310 309
318 318 318 318 317 315 314 314 312 308 306 305 304 304 303 302 302 302 304 302 300 300 300 301 302 304 306 305 306 307 307 307 307 306 304 307 307 308 308 307 302 309 311
313 315 316 316 314 313 312 308 304 303 303 301 301 301 300 301 301 300 301 299 299 299 300 301 300 301 302 302 302 302 303 303 305 307 308 309 310 312 310 309 306 306 310
311 313 314 314 311 308 305 303 301 300 299 299 300 299 298 298 299 299 299 298 298 299 300 300 300 300 300 299 301 300 301 301 305 304 304 302 301 303 307 310 307 306 305
309 308 307 307 305 303 302 301 299 299 299 299 299 298 300 298 298 298 298 297 296 296 296 297 300 298 298 298 299 300 299 301 303 304 304 303 303 305 304 310 309 304 305
307 307 305 305 303 301 300 299 298 298 298 296 296 296 296 297 297 297 297 296 295 295 296 296 297 298 296 296 296 298 297 298 299 302 303 304 306 307 308 308 309 308 306
307 305 302 301 302 301 299 298 298 296 294 293 292 292 294 295 297 296 296 295 296 295 295 297 298 296 295 295 295 296 295 297 298 298 299 301 303 305 307 308 308 310 311
305 302 302 302 302 300 299 297 295 293 292 291 291 290 291 293 293 296 295 295 295 296 297 297 296 295 294 295 295 295 295 296 296 296 296 298 301 305 308 309 308 309 311
301 301 300 299 297 297 296 296 294 291 290 290 290 289 290 291 292 292 293 294 296 296 297 296 296 295 295 296 295 296 297 297 296 295 296 298 301 303 305 308 307 306 306
299 299 297 295 295 293 293 293 293 292 292 290 289 289 289 290 292 293 292 293 294 294 293 293 293 294 294 295 296 296 297 297 296 297 296 297 298 300 303 306 308 306 305
295 294 293 293 292 291 290 291 292 293 293 292 291 290 291 292 292 292 292 292 291 291 291 292 293 294 295 295 296 296 297 297 296 297 297 296 296 298 300 305 307 306 304
295 294 294 292 290 290 289 288 288 290 293 293 292 292 291 291 291 291 291 291 291 291 294 295 295 297 298 299 299 299 298 300 299 297 297 297 297 298 298 302 305 305 305
295 294 291 290 289 288 288 288 288 289 291 290 292 292 292 292 291 291 291 292 296 297 298 297 298 298 299 298 298 298 299 299 300 300 297 297 297 297 298 301 305 305 305
294 293 292 289 288 289 288 288 288 289 291 291 292 293 292 292 292 292 292 296 296 296 297 297 298 298 298 298 297 298 297 298 298 300 299 298 298 298 298 300 303 300 302
294 292 290 289 289 288 288 287 288 290 289 289 291 292 293 293 293 294 296 296 296 296 297 296 297 297 297 297 296 296 298 300 300 299 299 298 298 299 299 301 302 304 306
294 291 288 289 288 288 287 287 287 287 288 290 292 293 288 290 293 294 295 295 295 295 296 296 296 296 296 295 295 297 300 299 299 299 299 299 300 299 303 306 306 309 308
292 292 290 289 289 289 287 289 292 289 288 288 290 293 289 294 293 294 294 294 295 296 296 296 296 296 295 294 295 299 301 299 299 300 300 301 301 305 305 306 309 310 309
294 292 290 289 291 290 292 292 291 289 287 289 289 290 292 291 292 292 293 294 295 295 296 296 295 294 294 294 296 302 303 300 301 302 302 304 303 305 308 309 309 309 308
294 292 290 291 293 292 291 287 286 285 286 287 286 287 289 290 291 292 293 293 294 294 295 295 295 294 292 293 294 300 308 308 306 306 305 304 306 303 311 310 310 309 308
294 292 292 293 292 291 287 285 285 284 284 285 285 286 288 290 290 291 291 293 293 293 294 295 295 294 292 292 292 294 293 291 306 301 310 310 310 311 311 310 310 309 308
293 294 293 290 288 286 285 284 284 283 283 284 285 285 287 287 288 290 290 291 292 292 293 294 294 294 291 291 290 287 288 289 299 296 313 313 312 311 310 310 309 308 308
Wind_Speed
14 11 11 9 8 7 8 7 7 7 7 7 6 5 4 4 4 3 4 5 5 5 4 5 7 6 4 4 4 4 3 4 9 9 3 8 6 8 9 9 9 4 3
14 13 13 10 10 9 7 7 8 8 7 7 6 5 5 6 5 5 6 5 5 6 6 5 7 5 5 5 4 6 5 6 6 11 7 5 5 5 6 9 5 3 4
12 14 11 11 11 10 9 8 8 7 7 6 6 6 6 6 6 6 6 6 5 5 5 5 6 6 6 5 6 8 7 6 7 6 8 3 3 3 4 5 4 2 2
12 13 13 12 12 10 9 8 8 8 7 6 6 6 6 5 4 5 4 5 5 5 5 6 7 7 9 8 8 9 9 10 8 7 7 6 4 3 3 5 4 1 2
11 11 12 11 9 8 8 7 6 5 5 5 4 4 3 3 3 4 5 5 6 6 7 8 8 11 17 14 9 9 9 8 6 7 7 5 3 1 3 3 3 0 1
12 14 11 10 9 8 7 6 6 5 5 4 4 2 1 2 5 7 6 6 6 6 8 7 8 14 13 17 18 18 13 11 12 9 9 9 7 4 3 2 4 1 2
5 2 5 7 8 7 7 7 7 7 6 5 4 3 2 4 7 9 12 6 5 6 8 8 9 9 12 10 14 17 18 17 17 13 14 12 9 5 5 3 3 4 3
7 6 6 6 6 7 7 7 6 5 6 5 3 2 3 5 9 12 13 7 6 8 8 10 11 11 11 13 13 12 12 12 13 10 12 12 12 8 7 6 6 4 2
6 7 8 10 8 8 8 7 5 5 3 1 3 3 4 6 10 12 11 7 7 9 9 9 11 13 14 14 14 14 14 13 10 15 17 17 12 13 10 4 6 5 4
4 8 7 7 9 9 8 7 3 3 3 2 4 5 7 7 9 13 11 5 8 8 7 11 17 16 16 15 12 12 14 12 12 11 9 11 14 14 16 13 7 8 7
11 10 10 8 8 7 6 3 4 3 3 4 4 4 5 5 8 14 14 7 7 8 9 10 9 13 14 15 16 13 16 12 14 12 10 10 10 10 10 11 13 10 10
8 10 7 6 4 4 6 2 3 4 5 2 2 4 4 6 12 11 13 13 12 10 12 11 13 17 16 17 15 20 20 17 11 11 11 12 10 11 11 10 14 14 12
16 8 0 5 5 6 5 4 1 3 3 4 3 4 5 5 6 11 12 13 13 10 10 16 24 25 25 22 26 27 25 13 12 12 14 14 13 11 11 11 13 14 13
9 7 6 5 3 3 5 4 3 1 3 4 4 4 5 7 7 4 4 7 12 12 14 13 15 20 24 23 20 16 12 12 13 14 14 12 10 11 12 10 10 12 11
6 5 5 5 4 4 4 2 3 3 4 4 3 3 7 7 7 10 12 10 10 13 16 10 9 9 10 11 11 11 11 11 12 12 13 12 11 11 13 13 12 10 11
6 5 4 4 3 4 1 3 4 8 7 6 12 10 5 10 15 17 19 21 20 20 8 10 11 11 12 12 12 12 11 15 13 12 12 12 12 12 13 12 14 12 13
7 5 4 4 3 4 4 2 5 6 10 13 11 10 9 13 16 18 19 20 19 15 8 10 12 12 12 12 12 12 13 11 13 12 13 12 12 12 12 15 14 14 13
6 7 4 5 3 2 2 4 3 3 7 6 6 7 10 13 15 18 18 16 10 8 9 11 12 13 13 13 13 13 12 11 11 12 13 13 12 13 13 13 15 16 14
6 4 3 4 3 4 2 3 4 4 6 6 7 5 6 11 15 15 13 6 10 11 11 12 12 13 13 13 13 12 12 11 11 12 12 13 13 13 13 14 11 16 15
5 9 5 4 3 2 1 2 5 4 5 5 5 6 9 11 11 11 10 10 10 11 12 13 13 13 13 13 12 11 11 9 9 11 11 12 12 12 13 14 15 13 14
5 5 6 4 2 0 1 3 4 4 5 5 6 6 8 7 9 10 11 11 11 12 13 13 13 13 12 12 11 11 8 6 5 5 9 10 11 12 14 14 13 12 15
5 5 4 4 1 1 2 3 3 4 5 5 6 7 9 7 8 9 10 11 12 12 12 13 13 12 11 11 12 11 3 3 3 5 7 9 10 10 11 11 12 10 14
6 5 4 2 1 2 2 3 4 4 5 5 7 8 9 9 9 10 11 12 12 13 12 12 13 12 11 10 9 8 3 4 4 5 7 8 10 6 9 11 14 12 13
6 5 4 3 0 2 3 4 4 5 5 6 6 7 7 9 9 11 11 11 12 13 13 13 12 15 14 11 7 7 3 2 6 7 8 4 8 7 11 13 13 14 13
5 4 3 3 3 4 4 5 5 5 6 5 6 7 8 8 10 11 11 11 12 13 15 15 13 16 16 17 12 9 7 4 6 7 8 8 8 10 12 11 13 12 14
4 5 4 4 4 5 4 4 5 5 5 5 6 7 7 8 10 10 12 13 13 13 16 13 17 21 20 15 16 11 8 4 6 8 10 11 10 9 9 12 16 11 15
Wind_Direction
159 150 146 155 154 150 156 149 159 154 165 172 184 183 194 222 240 243 254 261 257 269 260 249 263 244 248 249 240 232 207 224 270 292 270 303 310 308 317 317 312 284 225
160 153 159 152 148 149 156 164 162 173 176 182 185 189 208 226 229 231 255 257 255 267 268 265 262 269 250 246 237 237 231 227 258 281 293 289 287 288 296 299 295 280 265
152 159 150 153 157 166 174 173 175 174 182 185 182 199 214 230 236 238 237 256 259 260 269 268 265 264 268 256 251 263 262 257 247 259 277 260 272 292 313 302 308 321 318
157 159 161 167 176 175 175 183 182 183 180 178 194 208 226 246 256 269 274 275 269 254 257 255 257 259 267 269 266 262 265 272 258 254 261 266 243 269 281 292 295 321 2
156 161 173 169 166 164 176 184 181 164 154 179 186 222 256 284 277 289 279 273 263 262 257 258 259 253 260 260 268 271 271 269 257 254 260 252 242 248 273 279 277 243 39
170 180 173 159 161 173 163 155 137 147 147 153 182 198 261 275 287 290 279 265 262 260 269 260 248 262 266 264 261 268 266 270 271 272 270 260 242 234 186 277 323 286 237
177 110 152 152 159 155 133 141 150 150 144 139 131 142 250 277 279 276 277 271 262 257 262 267 271 270 271 263 261 257 256 246 249 261 264 260 264 213 182 213 262 277 264
149 114 116 106 109 117 125 133 127 131 142 151 167 230 264 278 271 272 273 272 261 257 255 261 264 269 259 256 262 260 258 254 246 237 248 251 253 252 208 192 197 237 275
131 141 141 144 144 138 131 134 139 131 107 166 214 240 248 269 269 269 274 270 264 261 257 256 259 266 272 258 265 270 268 263 256 242 246 253 248 233 215 198 217 222 238
62 116 105 110 127 121 130 132 112 106 176 207 250 240 248 256 272 268 268 259 266 278 272 268 264 262 267 259 261 269 274 270 261 255 248 248 243 239 219 222 207 210 218
76 49 57 68 93 95 99 87 126 163 201 233 241 266 267 266 265 259 261 275 276 286 285 284 279 272 263 257 253 260 260 273 275 273 256 247 239 228 224 213 219 209 212
58 100 97 87 68 92 113 167 176 180 193 212 280 306 267 261 261 259 261 258 267 279 281 283 281 280 271 265 262 260 256 256 254 252 252 250 240 229 226 210 212 206 213
120 92 254 105 139 163 145 143 141 45 38 316 290 267 283 280 259 263 273 272 270 273 273 275 278 278 276 273 265 260 256 249 244 240 239 237 232 230 227 209 199 204 210
113 122 127 118 105 71 79 68 62 254 269 271 291 294 309 276 282 277 288 301 292 286 284 278 275 273 269 266 271 265 248 239 234 236 238 239 232 222 218 206 197 190 201
110 116 110 98 88 67 65 153 218 247 216 262 275 290 263 284 295 295 293 296 294 287 293 284 282 275 271 265 258 253 247 241 236 234 234 232 228 220 217 207 203 189 192
97 92 116 126 136 128 166 349 305 255 295 300 252 237 263 263 283 286 289 291 289 288 284 283 277 273 270 271 267 262 247 239 232 229 228 224 220 215 214 210 200 191 188
123 132 113 80 62 57 31 306 299 330 261 243 260 291 285 275 292 298 298 297 297 298 282 281 278 277 277 275 272 268 264 247 231 223 220 217 213 214 205 213 199 190 187
111 124 114 117 115 101 243 258 257 280 308 307 269 267 292 291 299 302 305 309 310 300 290 288 288 288 285 284 281 273 268 259 242 229 215 209 205 205 204 217 191 186 182
129 121 130 123 157 180 177 278 290 285 306 296 315 314 312 314 306 294 292 302 304 301 301 296 295 294 293 290 285 281 271 262 248 233 212 200 198 195 201 204 211 183 176
134 142 139 139 182 128 82 320 294 313 295 290 320 317 326 335 339 334 331 317 309 306 303 303 303 301 299 295 291 281 270 258 264 228 199 190 189 191 197 194 199 194 178
143 143 134 139 146 137 205 263 291 291 288 311 320 313 313 325 318 320 312 312 312 310 308 308 308 306 303 301 290 278 257 255 246 206 178 179 179 185 199 178 177 176 169
142 142 139 124 164 224 274 279 284 311 318 316 320 325 326 338 320 312 316 314 314 313 312 311 309 309 309 305 298 288 256 219 196 182 177 180 179 176 163 173 168 156 153
135 130 117 151 191 262 325 340 346 346 330 335 346 346 339 330 327 323 320 319 320 319 318 317 314 315 319 311 298 293 248 185 189 180 185 164 178 175 171 163 144 147 144
122 121 143 156 190 16 16 18 1 356 359 360 348 329 330 332 328 325 327 324 326 326 324 324 325 328 328 324 315 306 293 352 167 173 176 144 161 182 163 143 137 143 142
125 137 127 77 42 39 43 28 13 11 6 342 331 340 337 335 337 339 336 335 334 331 334 334 337 340 343 343 349 334 322 260 158 140 167 171 137 132 133 128 139 135 138
117 87 78 72 67 58 54 40 27 6 341 344 349 341 333 344 345 344 342 344 342 338 342 343 343 352 358 1 358 345 9 46 103 77 109 118 124 118 125 132 139 141 150